Location: Vanderbilt Beach
(26.2700°N, 81.7900°W)
Time: 18:23:19
(UTC-04:00)

X-37B - Visible Passes

Search period start: 18 June 2021 00:00
Search period end: 28 June 2021 00:00
Orbit: 386 x 389 km, 45.0° (Epoch: 10 June)

Date Brightness Start Highest point End Pass type
(mag) Time Alt. Az. Time Alt. Az. Time Alt. Az.
20 Jun 3.0 05:50:20 10° NNW 05:53:05 26° NE 05:55:49 10° E visible
21 Jun 3.8 04:52:44 10° N 04:54:34 14° NNE 04:56:23 10° ENE visible
21 Jun 0.9 21:22:10 10° SSW 21:25:11 42° SE 21:28:12 10° ENE visible
21 Jun 3.8 22:59:54 10° WNW 23:01:06 15° NW 23:01:06 15° NW visible
22 Jun 1.1 05:29:54 10° NW 05:33:02 62° NE 05:36:09 10° ESE visible
22 Jun 2.6 22:00:35 10° W 22:03:25 30° NW 22:06:16 10° NNE visible
23 Jun 2.8 04:32:12 12° NNW 04:34:37 27° NE 04:37:22 10° E visible
23 Jun 0.9 21:01:52 10° SW 21:05:01 71° NW 21:08:11 10° NE visible
24 Jun 0.8 05:13:08 47° SSW 05:13:08 47° SSW 05:15:57 10° SSE visible
24 Jun 3.8 21:41:26 10° WNW 21:43:27 16° NNW 21:45:29 10° N visible
25 Jun 2.9 20:42:07 10° W 20:44:57 29° NW 20:47:47 10° NNE visible
